Location: Cañada de la Miga
(34.7595°N, 106.2317°W)
Time: 21:52:55
(UTC+00:00)

Transit 4A - Pass Details

Date: 06 December 2021
Orbit: 864 x 980 km, 66.8° (Epoch: 16 January)

Event Time Altitude Azimuth Distance (km) Brightness Sun altitude
Rises 01:18:47 0° 199° (SSW) 3,433 11.4 -17.1°
Reaches altitude 10° 01:21:13 10° 197° (SSW) 2,506 10.6 -17.6°
Maximum altitude 01:26:59 73° 114° (ESE) 924 7.7 -18.7°
Enters shadow 01:30:38 24° 34° (NE) 1,750 8.9 -19.4°
Drops below altitude 10° 01:32:55 10° 31° (NNE) 2,581 - -19.9°
Sets 01:35:28 0° 29° (NNE) 3,542 - -20.4°
